STARLINK-34356

Last updated on Thu Jul 03 2025 00:02:06 GMT+0000 (Coordinated Universal Time)

1 64303U 25123N 25183.58335648 .00060490 00000+0 98009-3 0 9997 2 64303 69.9998 120.0872 0003612 269.6645 319.4674 15.52472372 4969
UTC large
Height (km)
Speed (km/s)
/
Latitude / Longitude
Inclination (degrees)
Orbital Period (minutes)
Azimuth
Elevation
Range (km)
Doppler Factor

Next 0 passes for location: London (51.5072 / 0.1276)

Sorry there are no passes over London.